Flag for Germany Weather past 2 weeks in Kehl, Baden-Württemberg, Germany

Now
37 °F

Light rain. Partly sunny.


Feels Like: 31 °F
Forecast: 31 / 36 °F
Wind: 9 mph from South

Location: Strasbourg Airport

Current Time: Jan 31, 2015 at 4:22:40 PM

Latest Report: Jan 31, 2015 at 4:00 PM


Visibility: N/A

Pressure: 29.09 "Hg

Humidity: 87%

Dew point: 34 °F

Location of KehlLocation

Historic Weather in Kehl — Graph

°F

Kehl temperature yesterday

Maximum temperature yesterday: 39 °F (at 12:00 AM)
Minimum temperature yesterday: 34 °F (at 5:30 AM)
Average temperature yesterday: 36 °F

Past Weeks' High & Low Weather Summary

 TemperatureHumidityPressure
High43 °F (Jan 16, 7:00 PM)100% (Jan 16, 4:00 PM)30.45 "Hg (Jan 16, 4:00 PM)
Low28 °F (Jan 18, 2:30 AM)70% (Jan 24, 2:00 PM)28.80 "Hg (Jan 30, 12:00 AM)
Average36 °F90%29.89 "Hg
* Reported Jan 16 3:00 PM — Jan 31 3:00 PM, Kehl, Weather by CustomWeather, © 2014

Note: Actual official high and low records may vary slightly from our data, if they occured in-between our weather recording intervals... More about our weather records

Advertising

Kehl weather history for previous 24 hours

 ConditionsComfort  
Time TempWeatherWind HumidityBarometerVisibility
3:00 PM
Jan 31
37 °FLight rain. Broken clouds.9 mph87%29.06 "HgN/A
2:30 PM37 °FLight rain. Broken clouds.12 mph81%29.06 "HgN/A
2:00 PM39 °FMostly cloudy.10 mph81%29.06 "HgN/A
1:30 PM39 °FMostly cloudy.9 mph75%29.06 "HgN/A
1:00 PM39 °FPartly sunny.10 mph81%29.06 "HgN/A
12:30 PM39 °FMostly cloudy.9 mph75%29.06 "HgN/A
12:00 PM39 °FBroken clouds.8 mph75%29.06 "HgN/A
11:30 AM39 °FClear.9 mph70%29.09 "HgN/A
11:00 AM39 °FPartly sunny.8 mph75%29.09 "HgN/A
10:30 AM37 °FScattered clouds.6 mph81%29.06 "HgN/A
10:00 AM36 °FPassing clouds.6 mph87%29.06 "HgN/A
9:30 AM34 °FClear.7 mph93%29.06 "HgN/A
9:00 AM34 °FPartly sunny.6 mph87%29.06 "HgN/A
8:30 AM34 °FPartly sunny.7 mph87%29.06 "HgN/A
8:00 AM34 °FClear.7 mph87%29.06 "HgN/A
7:30 AM34 °FPassing clouds.6 mph87%29.06 "HgN/A
7:00 AM34 °FOvercast.5 mph87%29.03 "HgN/A
6:30 AM34 °FMostly cloudy.6 mph87%29.03 "HgN/A
6:00 AM34 °FClear.5 mph87%29.03 "HgN/A
5:30 AM34 °FOvercast.5 mph87%29.03 "HgN/A
5:00 AM34 °FOvercast.6 mph87%29.03 "HgN/A
4:00 AM34 °FMostly cloudy.5 mph93%29.06 "HgN/A
3:30 AM36 °FOvercast.6 mph87%29.03 "HgN/A
3:00 AM36 °FMostly cloudy.6 mph87%29.03 "HgN/A
2:30 AM34 °FOvercast.7 mph100%29.03 "HgN/A
2:00 AM34 °FMostly cloudy.6 mph100%29.00 "HgN/A
1:30 AM34 °FMostly cloudy.5 mph93%29.00 "HgN/A
1:00 AM34 °FPassing clouds.3 mph93%29.00 "HgN/A
12:30 AM34 °FMostly cloudy.1 mph93%29.00 "HgN/A
12:00 AM34 °FPassing clouds.3 mph93%29.00 "HgN/A
11:30 PM
Jan 30
34 °FLight rain. Fog.3 mph93%29.00 "Hg2 mi
11:00 PM34 °FPartly cloudy.3 mph93%28.97 "HgN/A
10:30 PM34 °FPartly cloudy.3 mph93%28.97 "Hg4 mi
10:00 PM34 °FLight rain. Fog.2 mph93%28.97 "Hg3 mi
9:30 PM34 °FLight rain. Fog.2 mph93%28.94 "Hg2 mi
9:00 PM36 °FPassing clouds.2 mph93%28.94 "HgN/A
8:30 PM36 °FLight rain. Overcast.3 mph93%28.94 "HgN/A
8:00 PM36 °FPartly cloudy.7 mph93%28.91 "HgN/A
7:30 PM34 °FPassing clouds.6 mph100%28.91 "HgN/A
7:00 PM34 °FPassing clouds.6 mph100%28.91 "HgN/A
6:30 PM36 °FLight rain. Passing clouds.7 mph93%28.91 "HgN/A
6:00 PM36 °FLight rain. Passing clouds.6 mph93%28.91 "HgN/A
5:30 PM36 °FLight rain. Passing clouds.8 mph93%28.88 "HgN/A
5:00 PM37 °FLight rain. Broken clouds.8 mph87%28.88 "HgN/A
4:30 PM37 °FDrizzle. Broken clouds.9 mph87%28.88 "HgN/A
4:00 PM37 °FDrizzle. Partly sunny.8 mph87%28.88 "HgN/A
Weather by CustomWeather, © 2014

See weather overviewHow to use our weather pages